LFMTLFTW

Guest
Details From LFMT - Montpellier/Mediterranee
To LFTW - Garons Navy
Flight Number -
Tags generated
Created
Modified
Stats Distance 23 nm / 42 km
Max Altitude 100 ft / 30 m
Waypoints 3
Social Downloads 0
Likes 0
Share

Download

Looking for another format? Having issues loading an existing format? Contact us
Advertisement - Login to hide

Notes

Basic altitude profile: - Ascent Rate: 2500ft/min - Ascent Speed: 250kts - Cruise Altitude: 35000ft - Cruise Speed: 420kts - Descent Rate: 1500ft/min - Descent Speed: 250kts Options: - Use NATs: yes - Use PACOTS: yes - Use low airways: yes - Use high airways: yes

Route

LFMT FJR LFTW

ID Type Via Altitude (ft/m) Position (lat/lon) Dist (leg/tot) Name
O LFMT APT - 0 / 0 43.57626 / 3.96326 - / 0 nm Montpellier/Mediterranee
FJR VOR - 100 / 30 43.57836 / 3.97472 0 / 0 nm MONPELLIER MEDITERRANEE VOR-DM
O LFTW APT - 0 / 0 43.75744 / 4.41639 21 / 22 nm Garons Navy

Altitude Profile

Advertisement - Login to hide

LFMT

Details ICAO LFMT (MPL)
Name Montpellier/Mediterranee
Region France
Timezone Europe/Paris (UTC+2.0)
Stats Elevation 17 ft / 5 m (AMSL)
Location 43.576200° 3.963250°
Runways 2
Magnetic Variation 1.668° E

METAR

LFMT 291230Z AUTO 20010KT CAVOK 29/17 Q1013 NOSIG

Decode

TAF

TAF LFMT 290800Z 2909/3009 21010KT CAVOK BECMG 2920/2922 VRB03KT TEMPO 3000/3003 VRB15G25KT TSRA FEW090CB

Decode

Departure Runways

ID Width Length Bearing (true/mag) Surface Threshold Overrun Markings Lighting
12L 164 ft / 50 m 8,539 ft / 2,603 m 124.83° / 123.16° ASPHALT 0 ft / 0 m 0 ft / 0 m PREC-APP CENTERLINE EDGE THRESHOLD
12R 98 ft / 30 m 3,612 ft / 1,101 m 124.80° / 123.13° ASPHALT 328 ft / 100 m 0 ft / 0 m VISUAL
30L 98 ft / 30 m 3,612 ft / 1,101 m 304.81° / 303.14° ASPHALT 0 ft / 0 m 0 ft / 0 m VISUAL
30R 164 ft / 50 m 8,539 ft / 2,603 m 304.85° / 303.18° ASPHALT 0 ft / 0 m 0 ft / 0 m PREC-APP CENTERLINE EDGE THRESHOLD ALSF-I

LFTW

Details ICAO LFTW (FNI)
Name Nimes Garons
Region France
Timezone Europe/Paris (UTC+2.0)
Stats Elevation 309 ft / 94 m (AMSL)
Location 43.757400° 4.416350°
Runways 1
Magnetic Variation 1.776° E

METAR

LFTW 291230Z AUTO VRB04KT CAVOK 32/14 Q1013 NOSIG

Decode

TAF

TAF LFTW 290800Z 2909/3009 02010KT CAVOK BECMG 2912/2914 VRB05KT PROB30 TEMPO 3000/3003 VRB15G25KT TSRA FEW090CB

Decode

Destination Runways

ID Width Length Bearing (true/mag) Surface Threshold Overrun Markings Lighting
18 148 ft / 45 m 8,026 ft / 2,446 m 177.03° / 175.25° CONCRETE 0 ft / 0 m 292 ft / 89 m PREC-APP EDGE THRESHOLD CALVERT
36 148 ft / 45 m 8,026 ft / 2,446 m 357.03° / 355.25° CONCRETE 0 ft / 0 m 302 ft / 92 m PREC-APP EDGE THRESHOLD

Approach Navaids

Runway Type Ident Frequency Range Bearing (true/mag) Slope Elevation
18 DME NG 109.55 MHz 18 nm / 33 km - - 340 ft / 104 m (AMSL)
36 GS NG 109.09 MHz 10 nm / 19 km 357.19° / 355.42 ° 3.00° 308 ft / 94 m (AMSL)
36 LOC-ILS NG 109.09 MHz 18 nm / 33 km 356.75° / 354.97 ° - 308 ft / 94 m (AMSL)

Popular Alternatives